Regional Weather Roundup
Issued by NWS

Home | Current Version | Previous Version | Text Only | Print | Product List | Glossary Off
Versions: 1 2 3 4 5 6 7 8 9 10 11 12 13 14 15 16 17 18 19 20 21 22 23 24 25 26 27 28 29 30 31 32 33 34 35 36 37 38 39 40 41 42 43 44 45 46 47 48 49 50

000
ASUS43 KMPX 292101
RWRMN
WEATHER ROUNDUP FOR MINNESOTA
NATIONAL WEATHER SERVICE TWIN CITIES/CHANHASSEN MN
400 PM CDT WED OCT 29 2014


NOTE: "FAIR" INDICATES FEW OR NO CLOUDS BELOW 12,000 FEET WITH NO
SIGNIFICANT WEATHER AND/OR OBSTRUCTIONS TO VISIBILITY. N/A MEANS
CURRENT SKY AND/OR WEATHER CONDITIONS ARE NOT AVAILABLE.

MNZ060>063-068>070-292200-
   Twin Cities Metro

CITY           SKY/WX    TMP DP  RH WIND       PRES   REMARKS
TWIN CITIES    CLOUDY    41  31  67 CALM      30.12F
ST PAUL        CLOUDY    41  31  67 W5        30.13F
CRYSTAL        CLOUDY    42  31  64 SW7       30.11F
BLAINE         CLOUDY    43  34  70 SW8       30.11F
LAKEVILLE      CLOUDY    41  32  70 SW6       30.12F
EDEN PRAIRIE   CLOUDY    43  32  65 VRB7      30.11F
SOUTH ST PAUL  CLOUDY    42  31  65 SW8       30.12F HAZE
LAKE ELMO      CLOUDY    43  32  65 W5        30.12S
$$
MNZ001>005-007-008-013>017-022>024-027-028-292200-
   Northwest Minnesota

CITY           SKY/WX    TMP DP  RH WIND       PRES   REMARKS
BEMIDJI        CLOUDY    35  30  83 SW5       30.05F WCI  31
HALLOCK        PTSUNNY   39  28  65 S6        30.03F
ROSEAU         CLOUDY    37  32  81 SW7       30.05R
WARROAD        CLOUDY    37  34  87 SW7       30.05S
THIEF RVR FALL CLOUDY    36  28  75 S7        30.06S
CROOKSTON      MOSUNNY   39  28  65 S6        30.06S
FOSSTON        CLOUDY    36  30  80 S8        30.06S
DETROIT LAKES  PTSUNNY   37  32  81 S6        30.06F
MOORHEAD       MOSUNNY   43  30  61 SE8       30.06F
PARK RAPIDS    CLOUDY    37  30  75 VRB3      30.06F
MAHNOMEN       CLOUDY    36  29  75 S7        30.06F
$$
MNZ006-009>011-018-025>026-292200-
   North Central Minnesota

CITY           SKY/WX    TMP DP  RH WIND       PRES   REMARKS
BAUDETTE       CLOUDY    37  33  85 SW7       30.04F
FLAG ISLAND    CLOUDY    37  34  87 SW5       30.03S
INTL FALLS     CLOUDY    38  35  89 W8        30.04S
WASKISH        CLOUDY    37  34  87 SW8       30.05F
BIG FORK       CLOUDY    37  36  93 W6        30.06S
LONGVILLE      CLOUDY    37  34  87 W5        30.06F
GRAND RAPIDS   CLOUDY    36  30  80 W7        30.07S
CRANE LAKE     CLOUDY    37  36  93 SW3       30.06S
ORR            CLOUDY    37  34  87 W6        30.03R
COOK           CLOUDY    37  36  93 W5        30.05R
WALKER         CLOUDY    35  31  84 W6        30.06F WCI  30
$$
MNZ012-019>021-037-292200-
   Northeast Minnesota

CITY           SKY/WX    TMP DP  RH WIND       PRES   REMARKS
DULUTH         CLOUDY    41  32  70 W8        30.05S
ELY            CLOUDY    37  36  93 W3        30.03S
HIBBING        CLOUDY    40  32  73 W6        30.06R
EVELETH        PTSUNNY   37  36  93 W8        30.06R
DULUTH HARBOR  CLOUDY    45  36  70 W9        30.08F
TWO HARBORS    CLOUDY    45 N/A N/A W7        30.04F
SILVER BAY     PTSUNNY   43  34  70 CALM      30.04S
GRAND MARAIS     N/A     45  34  65 VRB3      30.04S
G MARAIS ARPRT CLOUDY    37  28  70 W7        30.01F
$$
MNZ029>031-032-039>041-046>048-054>057-064-292200-
   West Central Minnesota

CITY           SKY/WX    TMP DP  RH WIND       PRES   REMARKS
FERGUS FALLS   SUNNY     39  27  60 SW8       30.08F
WHEATON        MOSUNNY   41  28  60 S8        30.08F
MORRIS         SUNNY     43  32  65 SE6       30.07F
ALEXANDRIA     PTSUNNY   39  29  67 W3        30.08F
ELBOW LAKE     FAIR      39  30  69 S6        30.07S
WADENA         CLOUDY    36  30  80 CALM      30.07S
GLENWOOD       MOSUNNY   41  30  65 SW8       30.09S
APPLETON       SUNNY     45  30  57 S6        30.08F
BENSON         MOSUNNY   41  30  65 CALM      30.10S
ORTONVILLE     SUNNY     45  30  57 S7        30.06F
MADISON        SUNNY     50  34  53 S3        30.07F
WILLMAR        FAIR      43  30  61 CALM      30.11S
$$
MNZ033>034-036-042>043-049>051-058-059-292200-
   Central Minnesota

CITY           SKY/WX    TMP DP  RH WIND       PRES   REMARKS
ST CLOUD       CLOUDY    42  32  67 S7        30.09F
SAUK CENTRE    CLOUDY    38  31  75 CALM      30.09S
PAYNESVILLE    SUNNY     38  30  74 S5        30.09F
AITKIN         CLOUDY    39  32  75 W6        30.07S
PINE RIVER     CLOUDY    37  32  81 CALM      30.10S
BRAINERD       CLOUDY    37  31  78 W6        30.08F
STAPLES        CLOUDY    37  30  75 W7        30.08S
LONG PRAIRIE   CLOUDY    39  32  75 S7        30.08S
LITTLE FALLS   CLOUDY    37  32  81 W5        30.09S
LITCHFIELD     MOSUNNY   43  34  70 CALM      30.10F
BUFFALO        CLOUDY    41  32  69 SW5       30.12S
MAPLE LAKE     PTSUNNY   43  33  68 S7        30.10F
$$
MNZ037-044-045-052-053-292200-
   East Central Minnesota

CITY           SKY/WX    TMP DP  RH WIND       PRES   REMARKS
PRINCETON      CLOUDY    41  34  75 W6        30.11S
MORA           CLOUDY    37  32  81 W8        30.11F
CAMBRIDGE      CLOUDY    43  30  61 W6        30.09S
RUSH CITY      CLOUDY    40  32  73 W6        30.11S
MOOSE LAKE     CLOUDY    39  32  75 W3        30.06F
HINCKLEY       CLOUDY    41  34  75 W7        30.09F
CLOQUET        CLOUDY    39  32  75 W6        30.06F
MCGREGOR       CLOUDY    37  32  81 SW5       30.08S
$$
MNZ071>073-080-081-089-090-097-098-292200-
   Southwest Minnesota

CITY           SKY/WX    TMP DP  RH WIND       PRES   REMARKS
MONTEVIDEO     SUNNY     45  32  61 CALM      30.10F
GRANITE FALLS  SUNNY     45  31  58 S3        30.11S
CANBY          SUNNY     48  33  55 W6        30.08S
MARSHALL       SUNNY     48  28  46 SW9       30.07F
REDWOOD FALLS  SUNNY     46  29  51 S6        30.09F
OLIVIA         SUNNY     45  32  61 CALM      30.08F
PIPESTONE      SUNNY     48  30  49 SW7       30.06F
WINDOM         SUNNY     50  30  46 CALM      30.09F
WORTHINGTON    SUNNY     48  28  46 SW9       30.09F
JACKSON        SUNNY     50  30  46 SW6       30.10F
TRACY          SUNNY     50  32  49 S6        30.08F
SLAYTON        SUNNY     49  27  42 CALM      30.09F
$$
MNZ065>067-074>077-082>085-091>093-292200-
   South Central Minnesota

CITY           SKY/WX    TMP DP  RH WIND       PRES   REMARKS
MANKATO        SUNNY     45  28  53 SW5       30.12F
NEW ULM        SUNNY     45  32  61 CALM      30.11F
ST JAMES       SUNNY     48  30  49 CALM      30.12F
FAIRMONT       SUNNY     50  28  43 W3        30.11F
GLENCOE        MOSUNNY   43  33  69 SW6       30.11F
FARIBAULT      PTSUNNY   45  32  61 CALM      30.13F
OWATONNA       SUNNY     43  30  61 W5        30.13S
WASECA         SUNNY     43  28  56 CALM      30.14S
ALBERT LEA     SUNNY     45  32  61 NW6       30.12F
$$
MNZ078>079-086>088-094>096-292200-
   Southeast Minnesota

CITY           SKY/WX    TMP DP  RH WIND       PRES   REMARKS
ROCHESTER      SUNNY     44  31  60 VRB5      30.12F
RED WING       SUNNY     46  28  49 CALM      30.11S
STANTON        CLOUDY    43  32  63 W9        30.11F
DODGE CENTER   PTSUNNY   43  34  70 W6        30.12S
WINONA         PTSUNNY   46  34  61 NW8       30.13S
AUSTIN         SUNNY     45  32  61 W7        30.12S
PRESTON        SUNNY     43  32  64 W7        30.12F
$$
ABBREVIATIONS USED IN REMARKS
   TC - TEMPERATURES IN CELSIUS
  WCI - WIND CHILL INDEX
   HX - HEAT INDEX
  VSB - VISIBILITY
$$



USA.gov is the U.S. government's official web portal to all federal, state and local government web resources and services.